Location: *
(46.4000°N, 12.6667°E)
Time: 01:58:35
(UTC+00:00)

Cosmos 1980 Rocket - Pass Details

Date: 09 April 2020
Orbit: 828 x 851 km, 71.0° (Epoch: 06 June)

Event Time Altitude Azimuth Distance (km) Brightness Sun altitude
Rises 19:53:20 0° 339° (NNW) 3,387 6.3 -20.1°
Reaches altitude 10° 19:56:15 10° 353° (N) 2,453 5.2 -20.5°
Maximum altitude 20:00:48 24° 47° (NE) 1,655 3.6 -21.2°
Enters shadow 20:02:15 22° 70° (ENE) 1,755 3.6 -21.4°
